Kansai Intl current weather conditions

sailwx.info

Wind from 300 at 12 knots

Air temperature 8.0° C
Visibility: greater than 5.4 NM
Dewpoint 4.0° C

Last reported at 2015-Mar-01 10:30 UTC.
Time now 2015-Mar-01 12:33 UTC

Location: N 34°26' E 135°15'.
View on Google Maps.

See reports from other nearby stations

  
Tides and Currents Weather Stations Pressure Air Temp Water Temp Dewpoint Dewpoint Depression Visibility Wind Speed Wind Dir Waves Ship Positions
date/time (UTC)wind fromknots sea level pressurealtimeterstation pressurevisibilityair tempwater tempwave heightnotes
2015-Mar-01 11:30 310 13 5.4 8.0
2015-Mar-01 11:00 300 14 5.4 8.0
2015-Mar-01 10:30 300 12 5.4 8.0
2015-Mar-01 10:00 320 14 5.4 8.0
2015-Mar-01 09:30 320 14 5.4 8.0 Showers in the vicinity.
2015-Mar-01 09:00 310 14 5.4 8.0 Light rain showers.
2015-Mar-01 08:30 330 9 5.4 8.0 Light rain showers.
2015-Mar-01 08:00 350 11 5.4 8.0 Light rain showers.
2015-Mar-01 07:30 320 16 3.8 8.0 Light rain showers.
2015-Mar-01 07:15 300 17 2.4 8.0 Light rain showers. Mist.
2015-Mar-01 07:00 290 19 2.2 9.0 Rain showers. Mist.
2015-Mar-01 06:30 290 16 1.1 9.0 Rain showers. Mist.
2015-Mar-01 06:13 290 18 1.1 9.0 Rain showers. Mist.
2015-Mar-01 06:00 290 16 1.3 9.0 Light rain showers. Mist.
2015-Mar-01 05:49 290 12 1.6 9.0 Light rain showers. Mist.
2015-Mar-01 05:30 290 12 1.3 9.0 Rain showers. Mist.
2015-Mar-01 05:00 300 9 1.6 9.0 Rain showers. Mist.
2015-Mar-01 04:30 010 9 1.3 9.0 Rain showers. Mist.
2015-Mar-01 04:18 020 10 1.3 9.0 Rain showers. Mist.
2015-Mar-01 04:14 020 10 1.6 9.0 Light rain showers. Mist.
2015-Mar-01 04:00 360 6 2.2 9.0 Light rain showers. Mist.
2015-Mar-01 03:49 010 6 2.2 9.0 Rain showers. Mist.
2015-Mar-01 03:42 030 6 2.4 9.0 Light rain. Mist.
2015-Mar-01 03:30 050 5 4.3 8.0 Light rain.
2015-Mar-01 03:00 070 3 2.7 8.0 Light rain. Mist.
2015-Mar-01 02:30 070 5 2.4 8.0 Light rain. Mist.
2015-Mar-01 02:00 060 8 3.2 8.0 Light rain. Mist.
2015-Mar-01 01:30 070 7 4.3 8.0 Light rain.
2015-Mar-01 01:00 060 10 4.9 8.0 Light rain.
2015-Mar-01 00:30 060 11 4.9 7.0 Light rain.
2015-Mar-01 00:00 050 11 3.8 7.0 Light rain.
2015-Feb-28 23:30 060 9 4.3 7.0 Light rain.
2015-Feb-28 23:00 070 10 4.3 7.0 Light rain.
2015-Feb-28 22:30 080 9 4.9 7.0 Light rain.
2015-Feb-28 22:00 080 8 4.9 7.0 Light rain.
2015-Feb-28 21:30 070 12 4.9 7.0 Light rain.
2015-Feb-28 21:00 060 13 5.4 7.0 Light rain.
2015-Feb-28 20:30 070 10 5.4 6.0 Light rain.
2015-Feb-28 20:00 070 13 5.4 6.0 Light rain.
2015-Feb-28 19:30 080 10 5.4 7.0 Light rain.
2015-Feb-28 19:00 070 7 5.4 7.0 Light rain.
2015-Feb-28 18:30 070 7 5.4 7.0 Light rain.
2015-Feb-28 18:00 070 5 5.4 7.0 Light rain.
2015-Feb-28 17:30 070 6 5.4 8.0 Light rain.
2015-Feb-28 17:00 080 3 5.4 8.0
2015-Feb-28 16:30 090 3 5.4 8.0
2015-Feb-28 16:00 5.4 8.0
2015-Feb-28 15:30 150 2 5.4 8.0
2015-Feb-28 15:00 5.4 8.0
2015-Feb-28 14:30 5.4 8.0
2015-Feb-28 14:00 5.4 8.0
2015-Feb-28 13:30 5.4 8.0
2015-Feb-28 13:00 120 3 5.4 8.0
2015-Feb-28 12:30 120 3 5.4 8.0
2015-Feb-28 12:00 120 4 5.4 8.0
2015-Feb-28 11:30 080 3 5.4 8.0
2015-Feb-28 11:00 340 3 5.4 8.0
2015-Feb-28 10:30 320 4 5.4 8.0
2015-Feb-28 10:00 320 3 5.4 8.0
2015-Feb-28 09:30 320 6 5.4 8.0
2015-Feb-28 09:00 320 8 5.4 8.0
2015-Feb-28 08:30 320 7 5.4 8.0
2015-Feb-28 08:00 320 9 5.4 9.0
2015-Feb-28 07:30 320 11 5.4 9.0
2015-Feb-28 07:00 360 8 5.4 9.0
2015-Feb-28 06:30 350 9 5.4 9.0
2015-Feb-28 06:00 340 9 5.4 9.0
2015-Feb-28 05:30 340 9 5.4 9.0
2015-Feb-28 05:00 020 8 5.4 9.0
2015-Feb-28 04:30 350 9 5.4 9.0
2015-Feb-28 04:00 010 7 5.4 8.0
2015-Feb-28 03:30 040 9 5.4 8.0
2015-Feb-28 03:00 010 10 5.4 7.0
2015-Feb-28 02:30 040 10 5.4 8.0
2015-Feb-28 02:00 030 11 5.4 7.0
2015-Feb-28 01:30 030 11 5.4 7.0
2015-Feb-28 01:00 030 8 5.4 7.0
2015-Feb-28 00:30 360 8 5.4 6.0
2015-Feb-28 00:00 010 10 5.4 6.0
2015-Feb-27 23:30 360 11 5.4 6.0
2015-Feb-27 23:00 350 11 5.4 5.0
2015-Feb-27 22:30 350 8 5.4 5.0
2015-Feb-27 22:00 350 10 5.4 5.0
2015-Feb-27 21:30 350 10 5.4 5.0
2015-Feb-27 21:00 350 10 5.4 5.0
2015-Feb-27 20:30 340 12 5.4 4.0
2015-Feb-27 20:00 350 11 5.4 4.0
2015-Feb-27 19:30 350 11 5.4 4.0
2015-Feb-27 19:00 340 11 5.4 4.0
2015-Feb-27 18:30 340 13 5.4 5.0
2015-Feb-27 18:00 340 13 5.4 4.0
2015-Feb-27 17:30 350 13 5.4 5.0
2015-Feb-27 17:00 340 12 5.4 5.0
2015-Feb-27 16:30 340 9 5.4 4.0
2015-Feb-27 16:00 340 9 5.4 4.0
2015-Feb-27 15:30 330 9 5.4 4.0
2015-Feb-27 15:00 340 10 5.4 4.0
2015-Feb-27 14:30 340 10 5.4 4.0
2015-Feb-27 14:00 340 11 5.4 4.0
2015-Feb-27 13:30 350 13 5.4 4.0
2015-Feb-27 13:00 350 16 5.4 5.0
2015-Feb-27 12:30 340 13 5.4 5.0
2015-Feb-27 12:00 350 15 gusting 25 5.4 5.0